Powrót do katalogu

THORAD DELTA 1 DEB

AktywnySSO
NORAD 8185·DEBRIS·🇺🇸 United States

Wystrzelony Nov 15, 1974 z Vandenberg Space Force Base

Loading…

Następne Przeloty (najbliższe 24 godziny)

TLE

ŚwieżeSource: Space-Track

Epoka: Sep 14, 2026, 06:10 UTC

1 08185U 74089BB  26257.25746544 -.00000005  00000-0  27507-3 0  9999
2 08185 101.5308 172.3906 0070057 346.3107 168.6984 12.40526116345803

Śledź THORAD DELTA 1 DEB w czasie rzeczywistym z AllMySat

Download on the App Store